Weather History for Ft Lauderdale, FL

Change the Weather History Date:

Wednesday, February 19, 2014

  Actual Average Record
Temperature  
Mean Temperature 76 °F 71 °F  
Max Temperature 80 °F 78 °F 89 °F (1926)
Min Temperature 71 °F 64 °F 35 °F (1958)
Degree Days  
Heating Degree Days 0 1  
Month to date heating degree days 5 19  
Since 1 July heating degree days 80 99  
Cooling Degree Days 11 7  
Month to date cooling degree days 151 124  
Year to date cooling degree days 276 294  
Growing Degree Days 26 (Base 50)    
Moisture  
Dew Point 64 °F    
Average Humidity 65    
Maximum Humidity 74    
Minimum Humidity 56    
Precipitation  
Precipitation 0.00 in 0.08 in 2.56 in (1981)
Month to date precipitation 1.24 2.12  
Year to date precipitation 5.40 5.75  
Snow  
Snow 0.00 in - - ()
Month to date snowfall 0.0  
Since 1 July snowfall 0.0  
Snow Depth 0.00 in    
Sea Level Pressure  
Sea Level Pressure 30.13 in    
Wind  
Wind Speed 11 mph (ESE)    
Max Wind Speed 15 mph    
Max Gust Speed 21 mph    
Visibility 10 miles    
Events      
T = Trace of Precipitation, MM = Missing Value Source: NWS Daily Summary

Daily Weather History Graph

Daily Weather History Graph

Search for Another Location

Airport:

Trip Planner

Search our weather history database for the weather conditions in past years. The results will help you decide how hot, cold, wet, or windy it might be!

Date:

Astronomy

Feb. 19, 2014 Rise Set
Actual Time 6:52 AM EST 6:16 PM EST
Civil Twilight 6:29 AM EST 6:39 PM EST
Nautical Twilight 6:02 AM EST 7:06 PM EST
Astronomical Twilight 5:35 AM EST 7:33 PM EST
Moon 10:35 PM EST (2/19) 9:27 AM EST (2/19)
Length of Visible Light 12h 10m
Length of Day
11h 23m
Waning Gibbous, 80% of the Moon is Illuminated
Feb 19
Waning Gibbous
Feb 22
Last Quarter
Mar 1
New
Mar 8
First Quarter
Mar 16
Full

Hourly Weather History & Observations

Time (EST) Temp. Heat Index Dew Point Humidity Pressure Visibility Wind Dir Wind Speed Gust Speed Precip Events Conditions
12:53 AM 73.0 °F - 61.0 °F 66% 30.15 in 10.0 mi ESE 9.2 mph - N/A   Scattered Clouds
1:53 AM 73.0 °F - 62.1 °F 68% 30.13 in 10.0 mi SE 8.1 mph - N/A   Scattered Clouds
2:53 AM 73.0 °F - 62.1 °F 68% 30.11 in 10.0 mi ESE 10.4 mph - N/A   Scattered Clouds
3:53 AM 72.0 °F - 63.0 °F 73% 30.10 in 10.0 mi SE 10.4 mph - N/A   Scattered Clouds
4:53 AM 72.0 °F - 62.1 °F 71% 30.11 in 10.0 mi SE 9.2 mph - N/A   Mostly Cloudy
5:53 AM 73.0 °F - 63.0 °F 71% 30.12 in 10.0 mi ESE 8.1 mph - N/A   Scattered Clouds
6:53 AM 73.0 °F - 62.1 °F 68% 30.14 in 10.0 mi East 11.5 mph - N/A   Scattered Clouds
7:53 AM 75.0 °F - 62.1 °F 64% 30.16 in 10.0 mi ESE 11.5 mph - N/A   Scattered Clouds
8:53 AM 77.0 °F - 61.0 °F 58% 30.17 in 10.0 mi ESE 13.8 mph - N/A   Mostly Cloudy
9:53 AM 78.1 °F - 62.1 °F 58% 30.18 in 10.0 mi ESE 10.4 mph - N/A   Mostly Cloudy
10:53 AM 78.1 °F - 62.1 °F 58% 30.18 in 10.0 mi East 12.7 mph - N/A   Mostly Cloudy
11:53 AM 78.1 °F - 62.1 °F 58% 30.17 in 10.0 mi East 10.4 mph - N/A   Mostly Cloudy
12:53 PM 79.0 °F - 63.0 °F 58% 30.14 in 10.0 mi East 11.5 mph - N/A   Scattered Clouds
1:53 PM 80.1 °F 81.7 °F 64.0 °F 58% 30.12 in 10.0 mi SE 13.8 mph - N/A   Mostly Cloudy
2:53 PM 79.0 °F - 64.0 °F 60% 30.10 in 10.0 mi East 12.7 mph - N/A   Mostly Cloudy
3:53 PM 79.0 °F - 64.0 °F 60% 30.09 in 10.0 mi ESE 12.7 mph - N/A   Mostly Cloudy
4:53 PM 77.0 °F - 64.9 °F 66% 30.09 in 10.0 mi ESE 13.8 mph - N/A   Scattered Clouds
5:53 PM 75.9 °F - 64.0 °F 67% 30.11 in 10.0 mi SE 9.2 mph - N/A   Partly Cloudy
6:53 PM 75.0 °F - 64.0 °F 69% 30.11 in 10.0 mi SE 9.2 mph - N/A   Partly Cloudy
7:53 PM 75.0 °F - 66.0 °F 73% 30.12 in 10.0 mi ESE 9.2 mph - N/A   Scattered Clouds
8:48 PM 75.2 °F - 66.2 °F 73% 30.14 in 10.0 mi East 10.4 mph - N/A   Mostly Cloudy
8:53 PM 75.0 °F - 66.0 °F 73% 30.14 in 10.0 mi ESE 10.4 mph - N/A   Mostly Cloudy
9:53 PM 75.0 °F - 66.0 °F 73% 30.14 in 10.0 mi East 11.5 mph - N/A   Mostly Cloudy
10:21 PM 75.2 °F - 66.2 °F 73% 30.14 in 10.0 mi ESE 10.4 mph - N/A   Mostly Cloudy
10:47 PM 75.2 °F - 66.2 °F 73% 30.14 in 10.0 mi East 11.5 mph - N/A   Scattered Clouds
10:53 PM 75.0 °F - 66.0 °F 73% 30.14 in 10.0 mi East 11.5 mph - N/A   Scattered Clouds
11:53 PM 75.0 °F - 66.0 °F 73% 30.14 in 10.0 mi ESE 10.4 mph - N/A   Scattered Clouds